OBJECT A, 55009

Orbit data source: Space-Track

You're viewing an Uncataloged Satellite

Recently launched and/or uncataloged satellites may have evolving metadata. Metadata may include but not limited to: Owner, Maufacturer, Bus, Motor, and Mission.

OBJECT A, 55009 is a satellite in SSO that was launched on Tue, 03 Jan 2023 UTC via an FALCON 9 launch vehicle from the Air Force Eastern Test Range (AFETR). Unknown objects in Earth's orbit typically refer to objects detected orbiting the Earth but have not yet been identified or cataloged. These objects could be anything from previously untracked satellites, spent rocket stages, debris from satellite collisions, or even natural meteoroids temporarily captured by Earth's gravity.

Loading next visibility...
Identifier
55009, 2023-001A
Orbit
SSO
Country
Flag of TBDTBD
Related business
Flag of PLScanway Space (PL)
Manufacturer
German Orb Sys
Mission
Operational Commercial Imaging
Bus & Motor
CUBESAT 6U, Unknown motor
Mass
10 kg wet, ~10 kg dry
Launch date (UTC)
2023-01-03 (3 years ago)
Launch vehicle
FALCON 9
Launch site
Air Force Eastern Test Range (AFETR)
Object type
Unknown
Shape & HBR
Box + 2 Pan, 0.1 m
Radar Cross Section
0.080 m², Medium (>0.1 m² and < 1m²)

Expand to show TLE details & history
Last TLE update: 14 hours ago

TLE from 14 hours ago
0 OBJECT A
1 55009U 23001A   25309.34011451  .00014455  00000-0  42269-3 0  9998
2 55009  97.3520   8.6055 0006468 188.3571 171.7566 15.35356307157798
Epoch: 2025-11-05T08:09Z
TLE epoch observation values (Epoch: 2025-11-05T08:09:45.893Z)
Latitude
-0.00003°
Longitude
-158.64991°
Altitude
467.353 km
Speed
7.63 km/s
True Right ascension
00h 34m 25s
True Declination
0° 00' 00"
Sunlit
Object was in full shadow at epoch
Visualization orbit readout
Latitude
Unknown
Longitude
Unknown
Altitude
Unknown
Speed
Unknown
Apparent Right ascension
Unknown
Apparent Declination
Unknown
Sunlit
N/A
Visualization observer readout
Local Sidereal Time
18:16:55
Azimuth
Unknown
Elevation
Unknown
Doppler factor
Unknown
Orbital elements
Apogee altitude
461.226 km
Perigee altitude
452.385 km
Semi-major axis
6,834.942 km
Eccentricity
0.00065
Inclination
97.352°
RAAN
8.6055°
Arg. of periapsis
188.3571°
True anomaly
171.76722°
Mean anomaly
171.7566°
Eccentric anomaly
171.76191°
Mean motion
3.84097 °/min
Orbital period
93.73 mins
BSTAR
0.00042269
Loading maneuver chart data...
Computing Atmospheric mass density...

Documentation

Showing up to 5 results
|